Location: Birkenwerder
(52.6919°N, 13.2774°E)
Time: 00:11:17
(UTC+00:00)

Cosmos 1570 Rocket - Pass Details

Date: 10 October 2020
Orbit: 763 x 788 km, 74.1° (Epoch: 24 October)

Event Time Altitude Azimuth Distance (km) Brightness Sun altitude
Exits shadow 02:13:51 25° 336° (NNW) 1,564 5.6 -28.7°
Drops below altitude 10° 02:17:08 10° 11° (N) 2,363 7.0 -28.3°
Sets 02:19:53 0° 23° (NNE) 3,294 8.0 -27.9°
